{"data":{"norad_id":29495,"intl_designator":"2006-043B","name":"OPTUS D1","alt_names":[],"object_type":"PAYLOAD","status":"ACTIVE","operator":null,"country":"AUS","launch_date":"2006-10-13","launch_site_code":"FRGUI","launch_vehicle":null,"mission":null,"orbit_class":"UNKNOWN","rcs_meters":3.9811,"size_class":null,"mass_kg":null,"dimensions":null,"purposes":["comms"],"wikipedia_slug":null,"has_3d_model":false,"image_url":null,"decayed_at":null,"tle_current":{"epoch":"2026-05-24T21:37:17.526720Z","epoch_age_seconds":83645,"freshness":"FRESH","line1":"1 29495U 06043B   26144.90089730 -.00000186  00000+0  00000+0 0  9999","line2":"2 29495   2.9774  79.9307 0003730 338.5854 300.2848  1.00272104 71880","mean_motion":1.00272104,"eccentricity":0.000373,"inclination_deg":2.9774,"raan_deg":79.9307,"arg_perigee_deg":338.5854,"mean_anomaly_deg":300.2848,"bstar":0,"rev_number":7188,"period_min":1436.0923353119,"perigee_km":35770.778122482,"apogee_km":35802.232945813,"semimajor_km":42164.642534148,"source":"CELESTRAK","updated_at":"2026-05-25T13:38:13.853373Z"}}}